Precipitable_Water
0.54 0.54 0.53 0.53 0.53 0.54 0.57 0.59 0.59 0.59 0.57 0.56 0.54 0.51 0.50 0.48 0.47 0.46 0.46 0.46 0.46 0.47 0.49 0.48 0.49 0.48 0.48 0.47 0.47 0.45 0.44 0.36 0.34 0.35 0.33 0.34 0.37 0.33 0.29 0.26 0.26 0.28 0.28 0.28 0.32 0.31 0.26 0.25 0.24 0.27 0.21 0.21 0.19 0.18 0.24 0.23 0.22 0.20 0.15 0.14 0.14 0.16 0.14 0.16 0.16 0.16 0.17 0.17 0.22 0.22 0.21 0.18 0.16 0.23 0.35 0.35 0.26 0.27 0.36 0.45 0.70 0.78 0.84 1.03 1.00 1.10 1.32 1.37
0.53 0.53 0.55 0.57 0.58 0.58 0.60 0.59 0.60 0.60 0.59 0.57 0.55 0.52 0.51 0.49 0.47 0.46 0.46 0.47 0.47 0.48 0.48 0.49 0.47 0.48 0.48 0.47 0.46 0.46 0.40 0.36 0.30 0.31 0.29 0.38 0.30 0.27 0.25 0.25 0.27 0.26 0.31 0.30 0.29 0.26 0.25 0.23 0.23 0.23 0.20 0.18 0.21 0.17 0.24 0.21 0.19 0.16 0.15 0.14 0.13 0.15 0.18 0.19 0.18 0.18 0.17 0.17 0.20 0.23 0.21 0.19 0.18 0.23 0.35 0.30 0.27 0.21 0.25 0.40 0.80 0.71 0.88 1.00 1.10 1.28 1.31 1.27
0.58 0.59 0.60 0.60 0.59 0.59 0.58 0.59 0.59 0.59 0.60 0.58 0.57 0.55 0.52 0.50 0.48 0.46 0.45 0.46 0.47 0.46 0.46 0.47 0.47 0.47 0.45 0.46 0.45 0.44 0.39 0.30 0.35 0.28 0.37 0.36 0.33 0.28 0.25 0.24 0.25 0.29 0.29 0.33 0.31 0.29 0.25 0.24 0.22 0.20 0.19 0.18 0.19 0.17 0.20 0.19 0.19 0.16 0.15 0.14 0.14 0.17 0.19 0.20 0.21 0.18 0.17 0.18 0.19 0.19 0.20 0.18 0.22 0.26 0.46 0.33 0.31 0.29 0.21 0.32 0.61 0.68 0.78 0.90 1.13 1.20 1.20 1.22
0.61 0.61 0.60 0.60 0.59 0.59 0.58 0.58 0.58 0.58 0.58 0.58 0.56 0.55 0.53 0.50 0.49 0.48 0.46 0.45 0.46 0.45 0.45 0.46 0.46 0.46 0.45 0.44 0.46 0.45 0.41 0.36 0.34 0.38 0.37 0.38 0.35 0.33 0.26 0.24 0.26 0.32 0.35 0.40 0.35 0.31 0.26 0.22 0.21 0.19 0.18 0.16 0.20 0.17 0.18 0.18 0.17 0.17 0.13 0.13 0.17 0.17 0.16 0.17 0.17 0.16 0.16 0.17 0.18 0.18 0.19 0.17 0.30 0.33 0.33 0.35 0.28 0.30 0.26 0.31 0.55 0.64 0.84 1.02 1.10 1.10 1.21 1.23
0.61 0.61 0.61 0.60 0.60 0.58 0.59 0.59 0.58 0.58 0.57 0.56 0.56 0.55 0.53 0.51 0.48 0.48 0.47 0.46 0.45 0.45 0.45 0.45 0.44 0.44 0.44 0.45 0.44 0.47 0.49 0.41 0.31 0.47 0.41 0.38 0.37 0.34 0.27 0.25 0.29 0.34 0.34 0.39 0.32 0.25 0.22 0.19 0.18 0.17 0.17 0.15 0.19 0.18 0.16 0.18 0.18 0.17 0.16 0.15 0.15 0.16 0.16 0.17 0.16 0.17 0.17 0.18 0.18 0.18 0.17 0.19 0.22 0.21 0.31 0.33 0.35 0.38 0.39 0.39 0.48 0.69 0.75 0.86 1.14 1.13 1.16 1.19
0.61 0.61 0.61 0.61 0.61 0.61 0.61 0.61 0.61 0.60 0.58 0.55 0.54 0.54 0.54 0.52 0.49 0.48 0.47 0.47 0.45 0.44 0.44 0.43 0.43 0.42 0.43 0.46 0.46 0.51 0.47 0.19 0.38 0.55 0.48 0.39 0.35 0.31 0.27 0.27 0.33 0.36 0.37 0.32 0.25 0.22 0.19 0.18 0.17 0.14 0.15 0.16 0.17 0.16 0.16 0.15 0.19 0.13 0.16 0.16 0.16 0.16 0.16 0.17 0.18 0.18 0.18 0.17 0.17 0.18 0.20 0.21 0.20 0.22 0.32 0.41 0.39 0.52 0.57 0.59 0.55 0.69 0.83 0.92 1.20 1.16 1.09 1.02
0.62 0.61 0.62 0.62 0.61 0.62 0.61 0.61 0.61 0.61 0.60 0.58 0.54 0.53 0.53 0.53 0.48 0.47 0.47 0.47 0.45 0.42 0.42 0.42 0.42 0.43 0.41 0.44 0.49 0.48 0.42 0.32 0.41 0.49 0.40 0.42 0.34 0.29 0.30 0.31 0.36 0.36 0.38 0.27 0.24 0.21 0.18 0.17 0.16 0.15 0.14 0.14 0.16 0.16 0.16 0.16 0.19 0.15 0.13 0.15 0.15 0.15 0.15 0.16 0.16 0.17 0.17 0.16 0.18 0.20 0.21 0.18 0.21 0.22 0.35 0.38 0.50 0.61 0.67 0.82 0.88 0.92 1.05 0.93 1.04 1.19 1.09 1.07
0.62 0.63 0.62 0.62 0.62 0.62 0.61 0.61 0.61 0.62 0.62 0.60 0.57 0.53 0.52 0.52 0.50 0.48 0.46 0.47 0.44 0.40 0.40 0.41 0.41 0.41 0.46 0.43 0.41 0.37 0.40 0.31 0.45 0.40 0.41 0.34 0.31 0.29 0.31 0.34 0.34 0.35 0.31 0.27 0.23 0.20 0.18 0.16 0.13 0.16 0.14 0.13 0.14 0.15 0.17 0.17 0.17 0.14 0.12 0.14 0.17 0.17 0.16 0.16 0.16 0.16 0.17 0.18 0.20 0.21 0.19 0.19 0.23 0.25 0.45 0.43 0.56 0.60 0.61 0.77 0.84 0.86 0.94 0.97 1.05 1.07 1.12 1.05
0.60 0.62 0.62 0.61 0.61 0.62 0.62 0.62 0.62 0.63 0.62 0.61 0.60 0.56 0.53 0.51 0.51 0.49 0.47 0.45 0.44 0.42 0.39 0.41 0.40 0.42 0.50 0.46 0.35 0.41 0.33 0.39 0.37 0.41 0.33 0.32 0.29 0.30 0.31 0.30 0.33 0.31 0.29 0.28 0.24 0.21 0.17 0.17 0.16 0.16 0.14 0.13 0.18 0.14 0.15 0.14 0.12 0.14 0.13 0.14 0.15 0.16 0.17 0.17 0.17 0.19 0.18 0.19 0.21 0.19 0.19 0.22 0.24 0.30 0.37 0.57 0.59 0.62 0.64 0.75 0.77 0.92 0.93 0.99 1.03 1.04 0.98 0.99
0.56 0.60 0.61 0.60 0.60 0.61 0.61 0.62 0.63 0.63 0.62 0.63 0.62 0.60 0.54 0.51 0.50 0.49 0.47 0.45 0.43 0.40 0.39 0.39 0.41 0.47 0.43 0.43 0.48 0.41 0.33 0.41 0.40 0.37 0.32 0.32 0.29 0.31 0.32 0.35 0.30 0.32 0.29 0.28 0.23 0.20 0.18 0.22 0.21 0.18 0.22 0.19 0.19 0.14 0.16 0.14 0.17 0.19 0.16 0.14 0.15 0.17 0.18 0.19 0.19 0.19 0.19 0.20 0.21 0.18 0.20 0.24 0.28 0.30 0.37 0.60 0.63 0.65 0.65 0.67 0.73 0.79 0.91 0.91 1.01 1.04 1.01 0.95
0.50 0.55 0.59 0.59 0.59 0.60 0.61 0.61 0.62 0.63 0.63 0.63 0.63 0.61 0.56 0.51 0.50 0.49 0.47 0.44 0.41 0.39 0.39 0.39 0.46 0.44 0.42 0.48 0.38 0.32 0.38 0.35 0.35 0.40 0.33 0.34 0.30 0.29 0.35 0.35 0.31 0.32 0.31 0.24 0.21 0.22 0.26 0.26 0.25 0.22 0.16 0.18 0.17 0.15 0.17 0.16 0.17 0.21 0.20 0.18 0.17 0.17 0.18 0.19 0.19 0.17 0.18 0.19 0.20 0.19 0.22 0.26 0.29 0.32 0.38 0.54 0.59 0.70 0.80 0.72 0.69 0.74 0.82 0.96 1.05 0.98 0.94 0.94
0.45 0.47 0.52 0.57 0.57 0.59 0.60 0.59 0.60 0.62 0.62 0.62 0.63 0.62 0.58 0.52 0.50 0.48 0.47 0.45 0.42 0.41 0.39 0.41 0.47 0.50 0.47 0.44 0.39 0.30 0.37 0.30 0.32 0.38 0.36 0.34 0.31 0.35 0.34 0.34 0.32 0.33 0.30 0.21 0.24 0.24 0.27 0.29 0.22 0.22 0.22 0.25 0.14 0.18 0.17 0.18 0.18 0.17 0.17 0.14 0.17 0.17 0.16 0.18 0.16 0.16 0.17 0.20 0.21 0.20 0.22 0.22 0.25 0.28 0.43 0.55 0.54 0.66 0.66 0.74 0.59 0.80 0.83 0.86 1.03 0.98 0.89 0.85
0.41 0.44 0.46 0.50 0.54 0.56 0.58 0.57 0.57 0.60 0.61 0.61 0.61 0.61 0.62 0.59 0.54 0.51 0.48 0.44 0.42 0.39 0.39 0.46 0.50 0.56 0.47 0.39 0.28 0.34 0.36 0.36 0.30 0.31 0.32 0.29 0.32 0.34 0.34 0.33 0.35 0.37 0.33 0.27 0.26 0.25 0.26 0.25 0.24 0.23 0.26 0.19 0.22 0.17 0.22 0.20 0.15 0.15 0.16 0.15 0.15 0.16 0.15 0.18 0.17 0.18 0.17 0.21 0.22 0.21 0.15 0.20 0.24 0.30 0.36 0.48 0.53 0.56 0.56 0.52 0.70 0.87 0.92 0.88 0.88 0.84 0.80 0.81
0.41 0.40 0.42 0.45 0.48 0.53 0.55 0.56 0.55 0.57 0.59 0.60 0.60 0.61 0.61 0.62 0.59 0.56 0.51 0.45 0.45 0.42 0.43 0.51 0.57 0.54 0.50 0.32 0.32 0.35 0.38 0.42 0.32 0.30 0.26 0.26 0.25 0.24 0.28 0.28 0.30 0.31 0.30 0.26 0.26 0.27 0.26 0.25 0.24 0.24 0.25 0.21 0.23 0.26 0.20 0.18 0.17 0.14 0.17 0.16 0.14 0.14 0.15 0.20 0.17 0.19 0.17 0.22 0.21 0.20 0.17 0.22 0.27 0.32 0.35 0.43 0.49 0.48 0.51 0.55 0.61 0.78 0.84 0.75 0.79 0.81 0.74 0.78
0.39 0.40 0.39 0.41 0.44 0.47 0.51 0.53 0.53 0.53 0.56 0.59 0.60 0.61 0.64 0.62 0.62 0.59 0.57 0.50 0.46 0.44 0.46 0.53 0.56 0.49 0.48 0.34 0.38 0.38 0.39 0.42 0.32 0.29 0.29 0.24 0.22 0.20 0.22 0.25 0.25 0.25 0.25 0.26 0.26 0.26 0.28 0.27 0.25 0.21 0.22 0.22 0.22 0.16 0.16 0.18 0.16 0.15 0.15 0.12 0.13 0.15 0.18 0.21 0.21 0.19 0.17 0.21 0.21 0.18 0.15 0.20 0.27 0.30 0.34 0.37 0.43 0.46 0.48 0.52 0.59 0.61 0.72 0.70 0.74 0.85 0.84 0.87
0.39 0.39 0.39 0.39 0.40 0.43 0.46 0.49 0.51 0.51 0.53 0.58 0.57 0.59 0.63 0.63 0.63 0.60 0.59 0.53 0.50 0.47 0.52 0.48 0.54 0.49 0.39 0.31 0.39 0.43 0.36 0.30 0.32 0.33 0.30 0.29 0.26 0.24 0.25 0.25 0.26 0.27 0.27 0.27 0.28 0.29 0.26 0.27 0.23 0.25 0.25 0.18 0.15 0.16 0.20 0.17 0.16 0.16 0.14 0.18 0.15 0.14 0.20 0.22 0.24 0.21 0.22 0.22 0.20 0.17 0.16 0.20 0.23 0.29 0.34 0.33 0.35 0.38 0.47 0.49 0.52 0.62 0.67 0.73 0.76 0.83 0.86 0.83
0.40 0.39 0.38 0.38 0.38 0.39 0.41 0.45 0.48 0.49 0.51 0.55 0.56 0.57 0.62 0.62 0.62 0.62 0.60 0.56 0.49 0.49 0.51 0.49 0.52 0.50 0.45 0.51 0.47 0.33 0.28 0.43 0.40 0.36 0.29 0.31 0.30 0.29 0.25 0.25 0.23 0.25 0.26 0.27 0.28 0.27 0.27 0.22 0.25 0.19 0.18 0.20 0.21 0.20 0.17 0.17 0.17 0.17 0.14 0.18 0.22 0.15 0.19 0.18 0.24 0.23 0.23 0.21 0.18 0.17 0.18 0.21 0.25 0.29 0.32 0.33 0.33 0.34 0.36 0.48 0.51 0.54 0.60 0.70 0.72 0.78 0.80 0.75
0.39 0.38 0.38 0.38 0.38 0.38 0.39 0.41 0.44 0.47 0.50 0.53 0.54 0.55 0.58 0.60 0.62 0.59 0.54 0.53 0.53 0.49 0.52 0.58 0.48 0.41 0.34 0.37 0.29 0.42 0.42 0.40 0.33 0.38 0.33 0.33 0.33 0.28 0.27 0.25 0.25 0.25 0.24 0.23 0.24 0.22 0.26 0.22 0.25 0.24 0.24 0.17 0.21 0.18 0.16 0.17 0.20 0.20 0.17 0.18 0.22 0.20 0.20 0.22 0.22 0.24 0.24 0.20 0.20 0.20 0.18 0.21 0.27 0.30 0.30 0.31 0.32 0.33 0.33 0.42 0.50 0.52 0.55 0.69 0.55 0.75 0.77 0.78
0.38 0.38 0.38 0.37 0.38 0.38 0.40 0.40 0.41 0.46 0.50 0.53 0.55 0.61 0.65 0.66 0.59 0.58 0.51 0.52 0.37 0.26 0.24 0.28 0.31 0.30 0.28 0.32 0.41 0.40 0.37 0.41 0.38 0.36 0.32 0.31 0.30 0.29 0.29 0.30 0.26 0.25 0.23 0.22 0.23 0.22 0.23 0.23 0.23 0.22 0.21 0.20 0.19 0.20 0.20 0.25 0.24 0.22 0.23 0.23 0.22 0.18 0.16 0.17 0.27 0.28 0.28 0.24 0.19 0.19 0.23 0.21 0.23 0.27 0.30 0.30 0.31 0.31 0.32 0.37 0.48 0.51 0.51 0.55 0.60 0.68 0.72 0.73
0.38 0.38 0.38 0.38 0.38 0.39 0.40 0.40 0.42 0.47 0.51 0.53 0.54 0.62 0.63 0.61 0.52 0.47 0.51 0.46 0.33 0.43 0.42 0.37 0.31 0.37 0.36 0.36 0.35 0.44 0.45 0.38 0.32 0.31 0.35 0.34 0.29 0.27 0.27 0.27 0.26 0.25 0.24 0.23 0.25 0.23 0.27 0.19 0.20 0.20 0.23 0.26 0.30 0.27 0.28 0.26 0.25 0.23 0.22 0.23 0.23 0.22 0.20 0.17 0.30 0.33 0.31 0.26 0.22 0.22 0.23 0.22 0.21 0.25 0.30 0.31 0.36 0.32 0.32 0.35 0.43 0.46 0.50 0.51 0.52 0.61 0.72 0.74
0.39 0.38 0.38 0.39 0.39 0.40 0.40 0.43 0.47 0.51 0.54 0.56 0.58 0.54 0.42 0.38 0.34 0.38 0.35 0.36 0.40 0.43 0.38 0.37 0.31 0.34 0.41 0.40 0.40 0.37 0.32 0.30 0.37 0.30 0.35 0.36 0.32 0.27 0.26 0.25 0.24 0.20 0.21 0.25 0.29 0.32 0.23 0.18 0.20 0.25 0.31 0.30 0.30 0.28 0.23 0.23 0.24 0.21 0.19 0.17 0.17 0.18 0.19 0.22 0.25 0.32 0.31 0.21 0.20 0.21 0.22 0.27 0.28 0.30 0.32 0.35 0.32 0.30 0.30 0.32 0.38 0.42 0.45 0.49 0.51 0.56 0.66 0.81
0.38 0.38 0.38 0.40 0.41 0.42 0.44 0.47 0.51 0.54 0.58 0.58 0.54 0.51 0.47 0.41 0.42 0.49 0.37 0.33 0.34 0.31 0.32 0.35 0.38 0.33 0.43 0.40 0.42 0.44 0.39 0.32 0.30 0.32 0.35 0.31 0.30 0.24 0.27 0.21 0.22 0.21 0.24 0.22 0.24 0.23 0.17 0.16 0.24 0.29 0.30 0.27 0.26 0.24 0.22 0.20 0.20 0.20 0.17 0.19 0.18 0.20 0.19 0.28 0.33 0.33 0.31 0.23 0.20 0.23 0.25 0.28 0.29 0.27 0.31 0.33 0.31 0.29 0.30 0.32 0.35 0.37 0.40 0.45 0.49 0.57 0.64 0.69
0.38 0.38 0.38 0.40 0.44 0.45 0.47 0.49 0.52 0.56 0.56 0.50 0.49 0.58 0.46 0.45 0.53 0.58 0.48 0.41 0.36 0.38 0.31 0.30 0.26 0.29 0.34 0.39 0.41 0.38 0.36 0.33 0.29 0.30 0.32 0.29 0.30 0.28 0.27 0.21 0.20 0.22 0.27 0.24 0.18 0.20 0.17 0.22 0.26 0.31 0.27 0.21 0.20 0.19 0.23 0.22 0.20 0.21 0.20 0.16 0.18 0.21 0.20 0.22 0.32 0.33 0.30 0.24 0.21 0.22 0.22 0.28 0.31 0.29 0.32 0.36 0.32 0.30 0.30 0.31 0.34 0.40 0.42 0.44 0.47 0.57 0.62 0.67
0.37 0.38 0.38 0.43 0.44 0.47 0.49 0.52 0.53 0.51 0.47 0.46 0.47 0.48 0.46 0.51 0.55 0.57 0.47 0.38 0.41 0.36 0.29 0.30 0.28 0.30 0.36 0.35 0.42 0.38 0.32 0.35 0.34 0.29 0.34 0.29 0.29 0.30 0.27 0.24 0.23 0.22 0.22 0.22 0.20 0.20 0.21 0.32 0.35 0.30 0.24 0.22 0.22 0.23 0.22 0.19 0.19 0.20 0.19 0.21 0.19 0.21 0.23 0.26 0.29 0.38 0.41 0.34 0.26 0.24 0.24 0.24 0.24 0.24 0.27 0.32 0.34 0.30 0.32 0.32 0.38 0.47 0.46 0.46 0.47 0.50 0.55 0.62
0.37 0.39 0.39 0.42 0.44 0.49 0.49 0.55 0.46 0.42 0.48 0.44 0.43 0.50 0.51 0.53 0.58 0.60 0.46 0.39 0.31 0.31 0.38 0.38 0.36 0.39 0.44 0.50 0.44 0.34 0.37 0.41 0.38 0.37 0.37 0.30 0.31 0.27 0.25 0.28 0.24 0.21 0.22 0.22 0.22 0.18 0.19 0.31 0.31 0.27 0.23 0.21 0.22 0.25 0.22 0.22 0.19 0.23 0.26 0.23 0.24 0.26 0.28 0.31 0.30 0.32 0.30 0.28 0.31 0.22 0.17 0.18 0.22 0.23 0.25 0.32 0.37 0.36 0.36 0.31 0.31 0.37 0.41 0.47 0.52 0.49 0.58 0.62
0.38 0.39 0.40 0.41 0.45 0.48 0.55 0.40 0.49 0.49 0.45 0.42 0.50 0.52 0.52 0.57 0.63 0.59 0.52 0.38 0.34 0.39 0.28 0.26 0.28 0.34 0.45 0.35 0.39 0.39 0.43 0.33 0.38 0.42 0.38 0.33 0.37 0.32 0.30 0.24 0.22 0.25 0.22 0.24 0.21 0.22 0.28 0.31 0.26 0.24 0.22 0.23 0.22 0.23 0.28 0.26 0.20 0.20 0.24 0.32 0.27 0.24 0.27 0.29 0.28 0.27 0.21 0.16 0.24 0.34 0.22 0.18 0.21 0.23 0.26 0.32 0.37 0.37 0.35 0.29 0.28 0.28 0.30 0.31 0.33 0.39 0.48 0.53
0.39 0.38 0.40 0.41 0.43 0.52 0.36 0.48 0.51 0.42 0.38 0.46 0.50 0.53 0.53 0.57 0.69 0.68 0.43 0.34 0.30 0.34 0.28 0.41 0.24 0.45 0.39 0.41 0.36 0.41 0.20 0.32 0.43 0.42 0.36 0.37 0.32 0.34 0.25 0.25 0.24 0.25 0.27 0.25 0.21 0.19 0.24 0.29 0.25 0.25 0.25 0.25 0.24 0.22 0.26 0.29 0.23 0.20 0.32 0.32 0.32 0.27 0.23 0.24 0.25 0.24 0.22 0.25 0.28 0.27 0.25 0.21 0.20 0.23 0.31 0.35 0.35 0.35 0.35 0.35 0.32 0.30 0.30 0.31 0.32 0.33 0.37 0.47
0.42 0.40 0.39 0.40 0.41 0.42 0.38 0.47 0.46 0.39 0.43 0.52 0.53 0.50 0.54 0.61 0.65 0.68 0.38 0.23 0.21 0.35 0.30 0.35 0.33 0.48 0.38 0.42 0.40 0.33 0.32 0.38 0.31 0.34 0.37 0.39 0.34 0.30 0.25 0.28 0.22 0.23 0.22 0.20 0.18 0.28 0.28 0.29 0.25 0.23 0.22 0.24 0.23 0.27 0.29 0.33 0.25 0.25 0.33 0.35 0.30 0.29 0.29 0.29 0.27 0.25 0.24 0.23 0.21 0.26 0.29 0.20 0.17 0.19 0.25 0.33 0.32 0.31 0.31 0.37 0.37 0.35 0.34 0.33 0.35 0.36 0.38 0.46
0.45 0.42 0.41 0.41 0.45 0.45 0.46 0.38 0.38 0.37 0.52 0.50 0.46 0.46 0.54 0.68 0.63 0.49 0.38 0.21 0.37 0.31 0.45 0.31 0.39 0.36 0.33 0.35 0.32 0.37 0.36 0.34 0.28 0.36 0.39 0.38 0.36 0.33 0.25 0.27 0.25 0.26 0.24 0.22 0.24 0.30 0.31 0.29 0.28 0.26 0.26 0.23 0.26 0.28 0.33 0.35 0.27 0.33 0.36 0.33 0.32 0.33 0.33 0.31 0.29 0.27 0.28 0.25 0.21 0.24 0.25 0.23 0.23 0.25 0.24 0.30 0.28 0.28 0.30 0.35 0.39 0.37 0.37 0.37 0.39 0.43 0.45 0.44
0.43 0.44 0.42 0.45 0.48 0.46 0.42 0.46 0.37 0.40 0.43 0.48 0.46 0.48 0.50 0.56 0.51 0.30 0.25 0.17 0.37 0.27 0.29 0.34 0.29 0.29 0.31 0.28 0.29 0.32 0.30 0.32 0.32 0.32 0.33 0.32 0.34 0.33 0.31 0.32 0.28 0.26 0.24 0.23 0.24 0.26 0.33 0.29 0.28 0.23 0.22 0.25 0.25 0.30 0.31 0.30 0.28 0.36 0.34 0.28 0.28 0.29 0.30 0.31 0.29 0.27 0.25 0.20 0.21 0.25 0.27 0.24 0.20 0.23 0.23 0.29 0.34 0.35 0.32 0.37 0.41 0.42 0.40 0.42 0.48 0.46 0.42 0.42
0.41 0.44 0.42 0.46 0.38 0.54 0.52 0.51 0.50 0.44 0.48 0.46 0.49 0.44 0.42 0.49 0.36 0.30 0.20 0.31 0.32 0.29 0.32 0.30 0.28 0.31 0.28 0.25 0.26 0.30 0.29 0.31 0.30 0.30 0.28 0.31 0.31 0.30 0.29 0.27 0.28 0.26 0.26 0.27 0.25 0.26 0.26 0.26 0.22 0.22 0.22 0.23 0.24 0.25 0.27 0.26 0.27 0.30 0.27 0.25 0.26 0.26 0.30 0.29 0.28 0.29 0.21 0.18 0.22 0.22 0.23 0.26 0.19 0.20 0.21 0.27 0.38 0.40 0.38 0.39 0.39 0.40 0.41 0.44 0.46 0.42 0.43 0.45
0.39 0.45 0.48 0.46 0.50 0.52 0.45 0.59 0.61 0.53 0.49 0.52 0.43 0.38 0.44 0.27 0.34 0.22 0.23 0.43 0.21 0.28 0.27 0.29 0.27 0.26 0.25 0.26 0.27 0.27 0.28 0.30 0.30 0.28 0.27 0.27 0.28 0.26 0.26 0.24 0.27 0.22 0.22 0.25 0.25 0.29 0.27 0.26 0.26 0.27 0.26 0.22 0.21 0.17 0.21 0.24 0.25 0.26 0.26 0.26 0.23 0.23 0.25 0.23 0.26 0.22 0.20 0.19 0.24 0.27 0.27 0.24 0.21 0.21 0.24 0.31 0.35 0.36 0.36 0.35 0.37 0.41 0.43 0.45 0.41 0.40 0.40 0.42
0.35 0.46 0.53 0.54 0.57 0.52 0.51 0.57 0.53 0.51 0.50 0.49 0.38 0.36 0.33 0.23 0.18 0.26 0.27 0.30 0.25 0.29 0.28 0.28 0.26 0.25 0.26 0.26 0.25 0.28 0.29 0.25 0.28 0.27 0.27 0.28 0.27 0.30 0.30 0.28 0.29 0.29 0.23 0.27 0.25 0.26 0.26 0.28 0.27 0.26 0.24 0.23 0.21 0.16 0.18 0.22 0.25 0.24 0.23 0.25 0.22 0.19 0.20 0.17 0.20 0.22 0.22 0.25 0.29 0.28 0.30 0.23 0.23 0.23 0.29 0.34 0.36 0.37 0.33 0.31 0.33 0.37 0.38 0.38 0.38 0.39 0.41 0.45
0.35 0.43 0.45 0.53 0.55 0.58 0.61 0.58 0.57 0.55 0.43 0.42 0.33 0.33 0.28 0.21 0.18 0.27 0.30 0.30 0.27 0.31 0.30 0.27 0.25 0.25 0.24 0.22 0.26 0.27 0.25 0.27 0.25 0.25 0.24 0.23 0.22 0.23 0.27 0.27 0.25 0.25 0.22 0.23 0.23 0.23 0.18 0.16 0.20 0.23 0.23 0.26 0.21 0.18 0.21 0.23 0.25 0.26 0.28 0.25 0.24 0.23 0.21 0.17 0.18 0.16 0.17 0.18 0.25 0.30 0.23 0.20 0.20 0.21 0.31 0.39 0.37 0.34 0.33 0.31 0.34 0.34 0.35 0.36 0.38 0.40 0.43 0.48
0.35 0.40 0.48 0.60 0.52 0.54 0.58 0.60 0.58 0.58 0.42 0.33 0.33 0.30 0.23 0.17 0.16 0.17 0.21 0.25 0.30 0.28 0.26 0.27 0.24 0.23 0.23 0.24 0.22 0.25 0.24 0.23 0.26 0.24 0.23 0.20 0.20 0.22 0.24 0.26 0.27 0.22 0.22 0.17 0.20 0.18 0.17 0.17 0.23 0.27 0.28 0.28 0.22 0.24 0.22 0.21 0.20 0.23 0.26 0.28 0.24 0.22 0.26 0.19 0.22 0.22 0.22 0.23 0.22 0.26 0.23 0.24 0.26 0.38 0.42 0.37 0.33 0.31 0.31 0.32 0.33 0.34 0.36 0.38 0.39 0.43 0.46 0.49
0.34 0.46 0.48 0.47 0.49 0.63 0.54 0.52 0.58 0.53 0.40 0.36 0.30 0.24 0.20 0.21 0.16 0.18 0.20 0.28 0.31 0.26 0.25 0.23 0.23 0.21 0.21 0.25 0.27 0.25 0.26 0.23 0.25 0.23 0.21 0.20 0.21 0.22 0.27 0.29 0.26 0.25 0.20 0.16 0.18 0.17 0.18 0.14 0.24 0.25 0.22 0.20 0.18 0.21 0.20 0.19 0.13 0.23 0.20 0.19 0.23 0.28 0.24 0.22 0.22 0.23 0.24 0.20 0.15 0.20 0.19 0.21 0.25 0.29 0.31 0.31 0.29 0.30 0.29 0.30 0.32 0.34 0.37 0.40 0.40 0.44 0.45 0.48
0.33 0.57 0.38 0.42 0.51 0.45 0.45 0.48 0.54 0.44 0.40 0.30 0.26 0.21 0.21 0.22 0.20 0.25 0.31 0.28 0.27 0.27 0.24 0.19 0.21 0.18 0.19 0.21 0.24 0.24 0.23 0.22 0.22 0.20 0.19 0.24 0.21 0.22 0.24 0.25 0.24 0.22 0.21 0.19 0.19 0.22 0.17 0.18 0.22 0.23 0.21 0.23 0.21 0.18 0.19 0.20 0.19 0.18 0.17 0.22 0.25 0.27 0.26 0.23 0.18 0.18 0.18 0.15 0.15 0.18 0.17 0.17 0.19 0.20 0.33 0.32 0.28 0.29 0.29 0.30 0.33 0.36 0.36 0.37 0.39 0.41 0.45 0.48
0.24 0.31 0.41 0.51 0.49 0.42 0.43 0.52 0.50 0.39 0.33 0.28 0.21 0.19 0.26 0.22 0.27 0.22 0.25 0.22 0.19 0.19 0.19 0.19 0.22 0.24 0.21 0.20 0.22 0.24 0.24 0.17 0.20 0.20 0.16 0.21 0.22 0.28 0.27 0.25 0.25 0.23 0.23 0.25 0.15 0.24 0.25 0.16 0.17 0.20 0.22 0.24 0.26 0.20 0.16 0.17 0.19 0.16 0.16 0.24 0.19 0.18 0.18 0.21 0.18 0.13 0.14 0.13 0.13 0.16 0.19 0.18 0.20 0.22 0.31 0.32 0.30 0.30 0.29 0.30 0.33 0.34 0.35 0.36 0.37 0.41 0.45 0.49
0.23 0.26 0.23 0.38 0.43 0.37 0.41 0.53 0.44 0.34 0.31 0.24 0.21 0.19 0.19 0.16 0.26 0.28 0.23 0.19 0.20 0.21 0.16 0.17 0.18 0.23 0.22 0.22 0.23 0.24 0.24 0.18 0.17 0.17 0.17 0.18 0.17 0.27 0.24 0.25 0.25 0.24 0.23 0.23 0.18 0.19 0.25 0.16 0.15 0.20 0.20 0.23 0.25 0.22 0.12 0.14 0.19 0.20 0.18 0.16 0.20 0.17 0.16 0.17 0.20 0.20 0.20 0.17 0.16 0.16 0.18 0.19 0.24 0.26 0.31 0.30 0.34 0.34 0.32 0.31 0.33 0.35 0.37 0.38 0.39 0.40 0.43 0.46
0.30 0.23 0.24 0.46 0.47 0.42 0.46 0.41 0.38 0.31 0.26 0.21 0.22 0.20 0.24 0.25 0.26 0.27 0.21 0.17 0.18 0.16 0.16 0.18 0.19 0.19 0.24 0.22 0.22 0.19 0.23 0.20 0.19 0.20 0.20 0.22 0.21 0.32 0.27 0.26 0.25 0.25 0.23 0.24 0.20 0.26 0.21 0.24 0.15 0.18 0.23 0.23 0.19 0.21 0.17 0.17 0.17 0.20 0.21 0.19 0.18 0.18 0.23 0.21 0.21 0.19 0.17 0.15 0.15 0.16 0.15 0.19 0.27 0.33 0.32 0.32 0.36 0.37 0.36 0.33 0.36 0.36 0.37 0.39 0.41 0.41 0.43 0.45
0.27 0.16 0.23 0.48 0.48 0.46 0.38 0.36 0.27 0.25 0.23 0.24 0.25 0.25 0.30 0.30 0.31 0.30 0.24 0.20 0.19 0.22 0.22 0.22 0.24 0.21 0.21 0.21 0.18 0.19 0.20 0.22 0.20 0.17 0.19 0.20 0.20 0.20 0.24 0.23 0.23 0.22 0.22 0.21 0.18 0.20 0.17 0.17 0.15 0.17 0.17 0.18 0.21 0.24 0.25 0.26 0.25 0.26 0.27 0.27 0.25 0.21 0.21 0.19 0.18 0.23 0.19 0.16 0.15 0.15 0.14 0.20 0.38 0.33 0.32 0.31 0.35 0.39 0.35 0.36 0.37 0.38 0.38 0.40 0.41 0.42 0.43 0.43
0.21 0.15 0.26 0.41 0.40 0.36 0.30 0.24 0.26 0.26 0.24 0.23 0.24 0.28 0.28 0.30 0.26 0.26 0.25 0.23 0.18 0.21 0.22 0.19 0.21 0.23 0.24 0.22 0.22 0.22 0.21 0.19 0.19 0.18 0.18 0.16 0.19 0.19 0.28 0.28 0.22 0.23 0.20 0.17 0.19 0.30 0.24 0.23 0.18 0.15 0.16 0.15 0.17 0.24 0.27 0.26 0.25 0.24 0.22 0.21 0.24 0.24 0.24 0.20 0.15 0.20 0.22 0.20 0.20 0.19 0.18 0.18 0.35 0.38 0.35 0.36 0.40 0.38 0.38 0.38 0.38 0.38 0.39 0.40 0.40 0.42 0.44 0.46
0.25 0.17 0.36 0.38 0.33 0.31 0.24 0.21 0.24 0.24 0.24 0.26 0.28 0.32 0.33 0.28 0.25 0.26 0.23 0.23 0.20 0.20 0.21 0.20 0.19 0.19 0.20 0.20 0.22 0.20 0.22 0.21 0.19 0.18 0.19 0.19 0.18 0.27 0.26 0.25 0.20 0.18 0.16 0.14 0.15 0.25 0.24 0.18 0.13 0.11 0.11 0.10 0.11 0.14 0.19 0.18 0.18 0.18 0.18 0.18 0.18 0.16 0.18 0.18 0.19 0.22 0.21 0.22 0.19 0.20 0.17 0.23 0.34 0.39 0.37 0.40 0.40 0.38 0.38 0.37 0.37 0.40 0.41 0.40 0.39 0.40 0.41 0.42
0.24 0.21 0.26 0.34 0.29 0.23 0.17 0.15 0.15 0.18 0.23 0.25 0.28 0.27 0.30 0.25 0.23 0.21 0.19 0.21 0.21 0.23 0.22 0.22 0.23 0.22 0.22 0.26 0.23 0.20 0.21 0.16 0.19 0.18 0.17 0.20 0.20 0.28 0.27 0.22 0.18 0.15 0.15 0.19 0.21 0.31 0.18 0.19 0.14 0.10 0.09 0.10 0.13 0.15 0.13 0.17 0.20 0.17 0.15 0.16 0.18 0.19 0.19 0.20 0.22 0.25 0.19 0.18 0.20 0.18 0.14 0.19 0.36 0.41 0.38 0.36 0.37 0.35 0.36 0.38 0.40 0.39 0.40 0.40 0.41 0.42 0.42 0.43
0.21 0.24 0.19 0.26 0.27 0.19 0.13 0.17 0.16 0.16 0.19 0.22 0.28 0.25 0.23 0.20 0.19 0.22 0.25 0.23 0.26 0.23 0.24 0.22 0.25 0.27 0.22 0.23 0.21 0.20 0.21 0.19 0.18 0.20 0.19 0.21 0.22 0.27 0.26 0.21 0.18 0.15 0.25 0.31 0.27 0.30 0.19 0.17 0.17 0.13 0.12 0.11 0.08 0.08 0.11 0.14 0.19 0.24 0.24 0.20 0.16 0.19 0.22 0.21 0.17 0.19 0.16 0.16 0.17 0.14 0.12 0.16 0.30 0.29 0.32 0.32 0.33 0.34 0.36 0.37 0.39 0.40 0.39 0.39 0.39 0.40 0.42 0.43
0.29 0.20 0.32 0.27 0.24 0.23 0.19 0.24 0.22 0.22 0.22 0.27 0.27 0.25 0.24 0.22 0.26 0.22 0.19 0.18 0.22 0.22 0.21 0.21 0.25 0.23 0.19 0.18 0.18 0.17 0.17 0.20 0.16 0.16 0.18 0.19 0.20 0.23 0.24 0.21 0.17 0.20 0.30 0.25 0.22 0.19 0.16 0.18 0.16 0.15 0.14 0.13 0.14 0.15 0.18 0.21 0.20 0.17 0.21 0.20 0.20 0.24 0.23 0.21 0.20 0.17 0.14 0.16 0.16 0.17 0.18 0.20 0.24 0.29 0.32 0.34 0.36 0.35 0.36 0.37 0.35 0.37 0.37 0.37 0.38 0.39 0.40 0.41
0.29 0.23 0.27 0.26 0.26 0.23 0.25 0.23 0.21 0.19 0.15 0.24 0.20 0.23 0.21 0.19 0.23 0.26 0.24 0.17 0.24 0.19 0.20 0.20 0.19 0.18 0.18 0.17 0.17 0.18 0.18 0.16 0.18 0.17 0.15 0.17 0.19 0.25 0.27 0.24 0.22 0.25 0.25 0.22 0.21 0.21 0.19 0.16 0.17 0.18 0.18 0.17 0.18 0.17 0.18 0.19 0.18 0.18 0.18 0.21 0.22 0.21 0.21 0.21 0.20 0.17 0.19 0.16 0.11 0.14 0.17 0.18 0.21 0.25 0.28 0.33 0.36 0.36 0.36 0.36 0.37 0.38 0.41 0.39 0.40 0.40 0.39 0.40
0.32 0.33 0.31 0.30 0.28 0.26 0.25 0.26 0.22 0.24 0.25 0.22 0.19 0.26 0.22 0.24 0.22 0.22 0.27 0.21 0.25 0.23 0.17 0.22 0.18 0.17 0.17 0.19 0.21 0.17 0.18 0.19 0.19 0.18 0.19 0.17 0.17 0.22 0.24 0.25 0.22 0.25 0.21 0.22 0.28 0.22 0.19 0.17 0.19 0.20 0.19 0.20 0.21 0.20 0.20 0.19 0.18 0.18 0.19 0.19 0.20 0.20 0.19 0.19 0.19 0.21 0.22 0.18 0.14 0.18 0.21 0.21 0.23 0.26 0.28 0.27 0.30 0.32 0.36 0.35 0.38 0.38 0.42 0.46 0.45 0.41 0.39 0.39
0.36 0.36 0.32 0.34 0.29 0.32 0.28 0.32 0.27 0.23 0.24 0.22 0.24 0.25 0.22 0.22 0.20 0.24 0.26 0.27 0.22 0.21 0.19 0.15 0.19 0.20 0.20 0.20 0.20 0.19 0.21 0.18 0.18 0.21 0.22 0.21 0.21 0.20 0.22 0.24 0.26 0.27 0.24 0.21 0.26 0.27 0.23 0.19 0.19 0.20 0.19 0.20 0.21 0.21 0.22 0.21 0.21 0.20 0.20 0.20 0.21 0.21 0.21 0.22 0.22 0.23 0.22 0.22 0.23 0.23 0.22 0.19 0.21 0.23 0.27 0.29 0.33 0.33 0.32 0.36 0.37 0.37 0.38 0.41 0.44 0.44 0.41 0.42
0.27 0.32 0.32 0.33 0.34 0.30 0.29 0.26 0.26 0.22 0.23 0.27 0.17 0.24 0.24 0.24 0.22 0.25 0.23 0.20 0.19 0.23 0.25 0.17 0.17 0.21 0.22 0.20 0.19 0.18 0.27 0.30 0.30 0.25 0.27 0.30 0.28 0.27 0.25 0.26 0.25 0.30 0.30 0.27 0.28 0.31 0.27 0.21 0.25 0.24 0.21 0.19 0.20 0.21 0.22 0.22 0.22 0.21 0.21 0.21 0.22 0.22 0.22 0.22 0.22 0.23 0.24 0.23 0.24 0.25 0.25 0.23 0.27 0.31 0.29 0.30 0.30 0.31 0.31 0.32 0.33 0.35 0.40 0.44 0.44 0.44 0.43 0.43
0.34 0.37 0.35 0.35 0.35 0.34 0.29 0.30 0.26 0.25 0.24 0.27 0.24 0.28 0.25 0.25 0.24 0.27 0.26 0.23 0.24 0.23 0.26 0.24 0.26 0.26 0.24 0.21 0.23 0.26 0.28 0.29 0.28 0.29 0.30 0.30 0.25 0.29 0.25 0.26 0.28 0.25 0.26 0.25 0.27 0.27 0.29 0.23 0.26 0.23 0.18 0.18 0.21 0.21 0.21 0.21 0.21 0.20 0.20 0.21 0.21 0.21 0.20 0.21 0.21 0.22 0.22 0.21 0.24 0.24 0.22 0.22 0.27 0.27 0.26 0.27 0.27 0.27 0.29 0.30 0.30 0.33 0.36 0.36 0.38 0.39 0.39 0.41
0.35 0.38 0.38 0.37 0.31 0.28 0.29 0.34 0.31 0.22 0.20 0.31 0.29 0.33 0.28 0.27 0.28 0.27 0.24 0.24 0.24 0.24 0.25 0.25 0.28 0.25 0.23 0.25 0.27 0.29 0.27 0.27 0.26 0.27 0.27 0.26 0.26 0.25 0.26 0.27 0.27 0.26 0.26 0.26 0.28 0.26 0.27 0.25 0.23 0.22 0.19 0.18 0.21 0.23 0.22 0.23 0.22 0.18 0.18 0.20 0.22 0.23 0.22 0.22 0.23 0.25 0.25 0.26 0.23 0.21 0.21 0.26 0.28 0.27 0.26 0.29 0.30 0.30 0.30 0.30 0.33 0.34 0.35 0.37 0.40 0.41 0.41 0.43
Wind_Speed
14 14 14 14 14 14 14 14 14 14 14 14 15 15 15 15 15 15 15 15 15 15 15 15 15 15 15 16 16 16 17 18 18 18 19 18 17 16 16 16 16 16 15 15 15 15 15 16 16 16 16 16 16 17 17 17 17 17 17 18 18 18 17 17 17 15 14 14 13 13 13 15 16 16 16 17 19 21 19 19 17 16 16 14 13 15 17 18
13 13 13 13 14 14 14 14 14 14 14 14 14 14 14 14 14 14 14 14 14 14 14 14 14 14 14 15 15 15 16 17 18 18 18 17 16 16 16 16 16 16 15 15 16 16 15 15 16 15 15 15 15 15 15 16 17 17 16 17 17 17 15 15 16 16 15 16 16 15 15 15 16 15 16 16 18 21 21 20 18 16 16 15 15 16 17 17
13 13 13 13 13 13 14 13 14 14 14 14 14 14 14 14 14 14 14 13 13 13 13 13 13 13 14 14 14 14 15 16 17 17 15 15 15 16 15 15 15 15 15 15 15 15 15 14 15 15 15 15 15 15 14 15 16 16 17 16 16 17 16 15 16 17 17 18 18 17 16 15 15 15 15 16 17 19 21 21 19 19 18 18 17 17 17 17
13 13 13 13 13 13 13 13 13 13 13 13 13 13 13 13 13 13 13 13 12 12 12 12 12 13 13 13 13 13 13 15 14 12 12 13 14 15 15 15 15 15 15 15 14 15 15 14 14 15 15 15 15 15 15 14 14 15 16 16 15 15 16 15 16 17 17 17 17 16 15 15 14 14 16 17 17 17 19 21 21 20 21 20 18 18 18 18
12 12 12 12 12 12 12 12 12 12 12 13 13 13 13 12 12 12 12 12 12 12 12 12 11 12 12 12 12 11 11 11 10 9 11 12 13 14 14 14 15 14 14 14 13 14 14 14 14 14 15 15 15 15 16 15 14 15 15 17 18 15 14 15 15 15 15 15 16 16 15 15 14 15 15 16 17 15 16 19 21 21 21 20 20 19 19 18
12 12 12 12 12 12 12 12 12 11 12 12 12 12 12 12 11 11 11 11 11 11 11 11 11 11 11 11 11 10 11 10 9 10 11 11 12 13 13 14 14 14 14 13 13 13 13 13 13 14 14 15 15 14 15 15 15 15 15 16 18 17 16 15 14 14 14 15 16 15 14 14 14 15 15 16 16 13 13 14 16 19 20 20 21 20 18 18
11 11 11 11 11 11 11 11 11 11 11 11 11 11 11 11 11 10 10 10 10 10 10 10 10 10 10 10 10 11 12 10 8 9 10 10 10 11 12 12 13 13 13 13 12 12 12 13 13 13 13 14 14 14 14 14 14 15 16 15 15 16 16 15 15 15 14 15 15 15 14 14 15 13 13 15 15 13 14 12 13 16 18 19 20 20 19 18
11 11 11 11 11 11 10 10 10 10 10 10 10 10 10 10 10 9 9 9 9 9 9 9 9 8 8 9 9 11 11 9 8 9 9 9 9 10 11 12 13 13 13 12 12 12 12 13 14 13 13 13 12 13 12 13 15 16 17 15 14 15 16 16 15 15 15 15 15 14 15 14 14 13 12 14 14 14 16 14 14 16 18 18 20 19 19 18
11 11 10 10 10 10 10 10 10 10 10 9 10 10 9 9 9 9 9 8 8 8 8 8 8 7 7 8 9 9 9 8 8 8 8 9 9 10 11 11 12 12 12 12 11 12 12 12 13 12 13 12 11 13 13 13 13 14 16 15 15 15 15 15 15 15 15 14 13 13 14 13 13 12 12 13 13 14 15 14 14 16 17 18 19 19 18 18
10 10 10 10 10 10 10 10 9 9 9 9 9 9 9 9 9 8 8 8 8 8 7 8 7 7 8 8 9 8 7 7 7 8 8 8 8 9 10 11 11 11 11 11 11 11 11 11 11 11 12 11 12 13 13 13 11 11 14 15 15 16 15 15 14 15 15 14 13 13 12 11 11 12 11 11 11 12 14 14 15 16 16 17 19 18 17 17
11 10 10 10 10 10 10 10 9 9 9 8 8 9 9 8 8 8 8 8 7 7 7 7 7 7 8 8 9 8 6 7 6 7 9 8 8 9 10 10 10 11 10 10 11 11 10 10 10 10 10 9 11 12 13 14 12 11 13 14 15 16 16 15 15 15 15 14 14 13 12 10 10 11 10 9 10 11 12 13 16 16 16 18 18 17 16 17
11 10 10 10 10 10 10 10 9 9 9 8 8 8 8 8 8 8 8 8 7 7 7 7 7 7 7 9 8 6 5 6 6 7 9 8 9 9 8 9 10 10 9 9 10 10 10 9 10 11 9 9 10 10 11 13 13 13 13 13 14 15 15 15 15 15 14 13 13 13 12 11 12 10 8 9 10 11 11 12 14 16 16 17 17 16 16 17
11 11 10 10 10 10 10 10 10 9 9 8 8 8 8 8 8 8 8 7 7 7 7 6 7 7 7 8 6 4 5 6 6 7 8 8 8 8 8 8 9 9 9 9 9 9 9 9 10 11 10 10 10 9 9 11 12 13 13 13 13 13 14 14 13 13 14 12 12 13 12 11 12 9 8 10 11 11 12 13 14 14 15 15 15 15 16 17
11 11 11 10 10 10 10 10 9 9 9 9 9 8 8 8 8 8 7 7 7 7 7 7 7 7 7 6 4 5 6 6 6 7 7 8 8 8 8 8 8 9 8 9 9 9 9 9 10 10 10 11 10 9 10 11 11 12 12 12 12 13 12 12 12 13 14 12 12 14 12 10 10 9 8 10 11 12 11 13 14 14 13 14 14 14 15 17
11 11 11 11 10 10 10 10 9 9 9 9 9 9 9 9 9 8 8 7 7 7 7 7 7 7 8 6 5 6 6 6 7 7 7 7 7 7 8 8 8 8 8 8 8 8 8 8 9 10 10 11 10 9 10 11 10 11 11 11 11 11 10 10 11 13 14 13 14 15 12 11 11 10 9 10 12 12 12 12 13 13 13 13 13 14 15 16
11 11 11 11 11 11 11 10 10 9 9 9 9 9 10 9 9 9 8 7 7 7 7 7 8 8 8 6 6 7 7 7 7 7 7 7 7 7 8 8 8 8 8 8 7 7 9 9 10 10 9 10 10 10 10 10 10 11 11 10 10 10 9 9 10 13 14 12 14 16 13 10 10 10 10 11 13 13 13 13 13 14 14 15 15 16 16 16
10 10 11 11 11 11 11 11 10 10 9 9 9 9 10 10 10 9 9 8 8 8 8 8 7 8 8 6 7 8 8 7 7 7 8 8 7 8 8 7 8 8 8 8 8 8 9 9 9 9 9 10 10 10 10 10 9 10 11 9 9 11 9 8 9 12 13 13 13 16 16 12 9 10 10 11 14 14 14 13 14 14 14 15 16 17 17 16
10 10 10 11 11 11 11 11 11 10 10 9 9 9 9 9 9 9 9 8 8 7 8 9 8 7 8 8 8 8 8 8 8 8 8 8 8 8 8 8 8 8 8 9 9 9 9 9 9 8 9 9 9 10 9 8 8 9 10 9 9 11 11 8 8 10 12 14 15 14 15 16 12 10 11 12 13 14 15 14 14 15 15 15 17 18 18 17
9 9 10 10 11 11 11 11 11 10 10 9 9 9 9 9 9 10 10 9 8 8 8 9 10 7 6 8 7 6 7 8 8 9 9 8 8 9 9 8 8 9 9 8 9 9 9 9 9 9 10 10 10 10 8 7 7 7 8 9 9 10 11 8 6 7 9 12 15 14 14 17 16 13 12 13 14 15 15 15 15 16 17 17 18 18 18 18
9 9 9 10 10 10 10 10 10 10 10 9 9 9 9 9 8 9 10 11 12 11 9 9 12 8 6 7 7 6 7 8 9 10 10 9 9 9 10 9 9 10 10 9 8 9 9 10 11 10 9 8 8 9 8 8 9 8 8 9 10 10 11 10 6 7 10 11 14 14 14 16 16 14 13 12 14 16 17 17 17 17 17 18 18 19 18 18
9 9 9 9 9 10 10 10 10 9 10 9 9 10 8 8 8 8 9 12 14 14 12 10 12 11 8 7 8 7 8 8 10 10 10 10 10 10 10 10 10 10 11 10 8 8 9 10 12 11 8 7 8 10 10 10 11 11 11 11 12 11 11 10 7 7 9 11 13 14 13 14 15 15 14 14 15 17 18 18 18 18 18 18 18 19 19 18
9 9 9 9 9 9 9 10 9 9 9 8 9 10 8 7 8 9 10 11 12 13 13 12 12 12 10 9 9 9 9 9 10 10 10 11 11 11 9 10 11 10 10 11 9 9 10 13 13 10 9 10 10 11 12 12 12 12 12 12 12 12 11 8 8 9 9 11 13 13 13 14 15 16 15 15 16 16 18 19 19 20 19 18 18 18 19 19
9 9 9 10 10 10 10 10 9 9 9 9 10 10 8 8 9 10 10 11 11 12 13 13 13 12 11 11 10 9 10 10 10 11 10 11 12 12 11 11 11 11 10 11 12 11 10 10 10 8 9 11 11 11 12 12 13 13 13 13 13 13 13 10 10 12 11 12 14 14 13 13 14 15 15 15 16 15 16 18 19 19 20 19 19 18 19 19
10 10 10 10 10 10 10 10 10 10 10 11 11 10 8 9 10 10 10 11 11 11 12 12 12 13 11 10 10 11 11 10 10 11 11 12 12 11 12 12 11 11 12 12 13 14 11 7 8 8 9 11 12 12 13 13 13 14 14 14 13 12 13 12 10 10 11 12 14 14 14 14 16 17 16 16 16 15 15 16 17 18 18 18 18 18 18 19
10 10 11 10 10 10 10 10 11 11 11 11 11 9 9 10 10 10 10 11 10 10 11 12 12 12 11 10 10 11 11 10 10 10 11 12 12 10 11 12 11 12 12 12 12 13 11 9 10 11 11 12 13 13 13 13 13 14 14 15 15 14 13 13 12 11 12 13 13 14 15 14 15 17 16 14 14 14 15 16 17 17 17 18 18 18 18 18
10 11 11 11 10 10 10 10 10 10 11 11 10 9 10 10 10 10 9 10 9 9 10 12 12 11 11 11 12 11 11 11 10 10 11 13 13 11 11 10 11 12 10 10 12 13 10 10 11 12 12 13 13 14 14 13 13 13 12 13 15 15 15 15 15 14 14 13 11 13 14 13 12 13 13 14 14 14 14 15 16 17 17 17 18 18 18 18
10 11 11 11 11 11 11 10 10 11 11 10 9 10 11 10 10 9 9 10 10 9 9 10 11 11 11 11 12 11 9 9 10 11 12 13 12 12 12 11 11 12 11 10 12 12 10 10 11 12 13 13 13 13 13 13 14 12 10 11 13 15 16 16 16 16 16 15 12 14 15 15 14 12 11 13 14 14 14 14 15 15 16 17 17 17 17 17
11 11 11 11 11 12 12 11 12 12 11 9 10 11 10 10 10 9 9 9 8 9 9 10 9 11 11 11 13 12 8 8 11 11 12 13 12 12 12 13 12 10 11 12 11 10 11 11 12 13 13 13 12 12 11 13 14 11 10 12 13 13 14 14 15 15 15 15 15 15 15 16 16 14 12 13 15 15 14 14 14 15 15 15 16 16 16 16
11 11 11 11 11 12 12 12 13 13 11 10 11 11 10 10 10 10 10 9 9 9 9 10 10 12 12 11 13 14 11 10 11 10 11 13 13 13 12 12 12 10 9 12 11 10 11 11 11 13 13 13 12 10 10 12 13 11 11 13 13 13 14 14 14 14 14 15 16 15 15 14 14 13 13 14 15 16 15 14 13 14 14 14 14 15 16 16
12 12 12 11 11 11 12 12 13 13 11 11 11 10 10 10 10 10 11 9 9 10 9 10 11 12 13 12 12 14 13 12 10 9 11 12 13 14 13 11 12 11 11 13 13 11 10 11 12 12 13 14 12 12 12 13 13 13 13 14 14 13 14 14 14 14 14 15 16 16 16 15 14 13 13 13 13 13 12 13 13 13 13 13 13 15 15 16
13 12 12 12 11 11 11 11 11 11 11 11 11 10 10 10 10 11 10 8 9 10 10 10 10 11 14 14 12 12 13 12 11 11 11 11 12 13 13 12 11 12 12 12 13 12 11 12 12 12 13 14 14 14 14 14 14 14 14 14 13 13 13 13 13 14 14 15 15 15 15 15 15 13 11 10 11 10 10 12 13 13 13 12 13 15 15 16
14 13 13 13 12 12 12 12 10 11 11 11 11 10 10 10 11 12 10 9 9 10 10 11 11 11 14 14 12 12 12 11 11 12 12 11 11 12 12 11 10 11 11 11 11 12 12 13 12 11 11 13 13 14 13 13 13 14 14 14 13 12 12 13 13 13 14 14 12 11 12 14 14 13 11 10 11 11 11 11 12 13 13 13 14 15 15 16
15 14 14 14 14 13 13 12 12 12 11 11 11 11 11 11 12 12 10 10 9 9 10 10 11 12 12 13 12 12 12 11 11 12 12 12 11 11 12 12 11 11 10 10 10 10 11 12 12 11 10 11 12 12 11 11 11 13 14 13 13 12 12 13 13 12 13 12 10 9 10 13 14 12 11 11 10 10 12 13 12 13 14 14 14 14 14 15
16 15 15 16 15 15 14 13 12 12 11 12 11 11 13 13 13 11 11 11 9 9 10 10 11 12 12 12 12 12 12 11 11 12 12 12 12 12 13 12 13 12 11 11 11 11 11 10 11 10 8 9 11 12 11 11 11 13 13 13 13 12 12 13 12 11 11 10 9 9 10 12 12 10 9 9 10 10 11 12 12 13 13 13 13 13 13 13
18 17 17 17 16 16 16 14 13 12 12 12 12 13 14 14 13 12 12 11 10 11 12 11 12 13 13 12 11 12 12 11 12 13 12 13 12 12 12 11 11 12 12 11 10 11 12 10 9 10 9 9 11 10 11 12 12 12 13 14 14 13 13 13 13 13 11 11 11 12 11 11 10 10 10 9 10 10 10 11 11 12 12 12 11 11 11 11
18 17 17 18 17 17 16 16 14 13 13 13 13 15 15 14 13 11 11 11 11 11 12 12 13 14 13 12 12 13 13 12 12 12 12 13 12 12 12 11 10 11 11 11 10 9 11 10 7 9 11 12 12 11 10 11 11 10 11 13 13 12 13 14 14 13 12 14 15 14 15 14 12 12 13 12 12 11 11 12 11 11 11 11 11 11 10 10
18 17 18 19 18 17 16 16 15 15 14 14 15 15 15 14 13 12 11 11 12 12 12 13 13 13 13 12 12 13 13 13 13 13 13 13 12 12 13 12 12 12 11 12 12 10 12 12 10 11 12 11 12 13 13 13 13 11 11 10 11 12 12 12 13 12 13 14 14 14 16 15 14 12 12 13 13 12 12 11 11 11 11 10 11 11 10 10
18 18 19 19 18 17 17 17 16 16 16 16 17 17 16 15 14 14 13 13 13 14 14 14 13 13 14 13 13 13 12 13 13 13 13 13 11 11 13 12 12 13 13 13 13 12 12 14 14 13 13 11 11 13 15 15 15 15 14 11 10 11 12 12 12 13 13 14 13 14 15 14 13 12 11 13 13 12 12 12 11 11 11 11 10 10 10 10
18 18 19 18 17 17 17 17 17 17 17 17 17 16 17 17 15 14 14 14 15 15 15 16 15 14 15 14 14 13 13 13 13 13 12 12 11 11 12 12 12 12 13 13 13 12 12 14 14 12 12 12 12 13 14 14 15 15 15 15 14 13 13 12 13 13 13 14 13 14 14 13 12 11 10 12 13 13 12 12 12 11 11 11 10 10 9 9
17 17 17 16 16 17 17 17 18 18 18 18 18 16 15 16 15 14 14 15 15 15 15 16 15 15 15 16 16 15 14 14 14 14 13 13 12 12 12 13 13 12 12 13 14 13 14 15 15 14 13 13 13 13 14 13 13 13 14 14 14 14 14 14 14 15 15 15 13 14 14 12 10 10 9 11 12 13 12 11 11 11 11 11 10 10 10 10
17 17 16 16 16 17 17 18 18 18 18 18 18 18 16 15 15 15 14 15 16 16 16 16 15 15 15 16 16 15 15 15 16 16 15 15 15 14 13 13 14 13 13 14 14 14 15 15 16 16 16 16 15 13 13 13 13 13 13 13 13 13 14 15 15 15 15 16 15 15 15 13 10 11 12 12 12 13 13 12 12 12 12 11 11 11 11 11
16 16 15 15 16 17 17 19 19 19 19 18 18 18 17 15 17 16 15 16 16 16 16 16 17 16 16 16 16 16 16 16 16 16 16 16 16 15 13 13 14 15 15 15 14 13 14 15 16 17 18 19 18 15 15 15 16 17 17 16 15 15 15 15 15 14 15 16 16 16 16 13 11 12 12 12 12 12 13 13 13 13 13 12 12 12 12 12
15 15 14 15 16 17 17 19 19 19 19 19 19 19 17 17 18 17 16 17 17 17 17 17 17 18 17 17 17 17 16 16 17 17 17 16 15 14 14 14 15 16 16 16 16 14 15 16 18 19 19 20 21 19 18 17 18 20 21 20 19 19 19 19 18 17 17 17 16 16 16 14 12 12 11 11 13 13 14 14 14 15 14 14 14 13 14 14
14 15 15 15 15 17 18 18 18 19 19 20 20 19 19 18 19 18 18 18 17 17 17 17 18 18 17 17 18 18 18 17 18 19 18 17 15 15 17 16 17 18 17 16 15 14 15 16 17 19 18 18 19 19 19 18 17 19 20 21 21 21 20 20 19 18 19 21 20 19 19 16 13 13 13 13 14 15 15 16 16 16 16 16 16 15 16 16
14 15 15 14 15 17 18 18 18 18 18 19 20 20 20 19 19 20 20 18 17 18 18 18 18 18 18 19 19 20 20 19 18 18 18 18 17 17 18 18 18 19 17 16 16 17 18 18 18 18 18 17 17 17 17 16 16 16 18 20 20 19 20 20 20 20 21 22 22 22 21 17 14 15 16 16 17 17 18 18 18 18 18 18 18 18 18 18
14 13 13 13 14 16 17 17 18 19 18 18 19 20 20 19 18 19 20 20 19 20 20 20 20 20 20 21 21 21 22 22 21 20 20 19 19 18 19 19 19 19 17 16 19 20 20 21 22 22 22 21 21 20 18 18 19 19 19 20 20 19 20 20 20 22 22 22 23 23 23 21 18 17 17 17 18 18 18 18 18 19 19 19 19 20 20 20
13 13 13 13 13 14 15 15 16 17 17 17 18 18 19 20 18 17 18 20 19 20 21 21 21 22 22 22 22 23 23 23 23 23 22 21 20 18 18 19 20 19 18 19 20 21 21 22 24 25 26 26 26 26 25 24 24 24 24 24 24 24 23 23 22 23 23 23 25 24 22 23 21 19 18 17 18 18 18 18 18 18 18 19 19 20 20 21
12 13 13 13 14 13 14 14 14 15 16 17 17 17 18 20 20 18 17 18 19 19 20 20 21 22 22 22 22 22 23 23 23 23 23 22 22 20 19 20 21 19 20 22 21 20 22 24 24 25 27 27 27 27 27 27 27 28 28 28 28 28 28 27 27 27 25 25 26 25 25 25 24 21 20 18 18 19 20 20 20 19 20 19 19 19 20 20
12 12 12 14 15 14 14 15 16 16 15 15 16 17 17 18 19 18 17 17 18 18 18 19 20 21 21 21 21 21 21 22 22 23 22 21 22 22 20 20 20 19 21 22 21 21 22 23 24 25 27 27 28 27 27 27 28 29 30 30 29 30 30 30 30 29 28 29 29 29 29 30 28 25 24 22 21 21 22 22 22 22 22 22 21 20 20 20
12 12 13 14 14 14 15 16 16 17 16 16 16 16 16 17 18 18 17 17 18 18 18 19 20 19 19 19 20 20 19 19 19 19 19 19 20 20 20 20 19 19 20 20 20 20 20 21 22 24 25 27 27 27 27 28 29 30 31 31 31 30 30 30 30 29 29 30 30 29 30 30 28 26 27 28 27 27 26 26 26 25 25 24 24 24 23 23
11 12 13 14 13 13 15 15 15 16 16 16 16 16 16 16 17 18 17 16 17 17 17 18 18 18 19 19 19 18 18 19 19 19 19 20 20 19 20 20 20 20 20 20 19 19 19 21 22 22 24 25 25 26 27 27 29 31 32 31 31 30 30 29 29 29 29 29 29 30 30 29 27 27 29 29 30 29 29 28 28 27 27 28 27 27 26 25
11 11 12 13 13 12 13 14 14 15 15 15 15 16 17 17 17 18 18 17 16 17 17 18 18 19 19 19 18 18 18 19 20 21 21 22 22 21 21 21 21 21 21 21 21 20 20 21 21 21 23 24 24 24 25 23 25 27 27 27 29 30 30 30 30 30 30 29 29 29 29 28 27 27 28 27 27 28 28 28 27 27 28 28 28 27 27 26
Wind_Direction
269 269 268 268 268 269 270 271 272 274 275 277 278 279 281 281 280 280 279 278 276 274 273 271 270 269 269 269 269 269 270 267 265 261 257 256 254 254 254 253 249 245 245 245 244 245 245 246 247 247 249 250 249 250 248 246 248 248 248 249 249 250 251 252 249 252 255 247 252 264 265 265 264 261 255 250 244 240 238 234 232 228 230 235 223 207 201 202
269 269 269 269 269 270 271 271 272 273 274 276 277 279 281 281 281 280 280 278 276 274 273 271 270 270 269 269 269 270 270 266 264 261 257 255 252 251 252 250 244 240 240 240 241 243 244 245 245 244 246 248 248 247 247 245 245 246 247 248 247 249 252 254 252 256 257 254 262 265 265 268 264 263 256 251 244 236 235 230 226 228 229 228 215 204 201 202
269 269 269 269 270 270 271 271 271 272 273 275 277 278 280 281 281 281 279 278 276 275 273 272 271 270 270 269 270 270 269 267 264 259 253 252 250 248 247 244 239 235 235 239 241 241 244 248 244 242 244 246 245 243 246 245 242 244 246 248 247 248 254 256 254 255 256 257 262 262 264 267 261 260 256 252 247 238 234 229 227 229 226 221 210 204 204 205
270 270 270 270 270 270 270 270 270 272 273 274 276 277 279 280 281 281 279 278 276 275 273 272 270 269 270 270 270 270 269 266 260 254 249 251 250 244 241 238 235 230 233 243 244 242 245 247 243 241 243 246 244 242 247 242 239 244 244 245 247 251 254 254 255 254 254 256 258 260 262 261 260 260 255 250 247 241 235 231 229 225 219 218 212 208 208 206
271 271 271 270 270 270 269 270 271 272 274 275 276 276 278 279 280 281 279 277 275 274 272 271 270 269 269 269 268 266 267 264 254 252 253 251 248 240 236 234 230 227 233 242 241 241 243 242 241 240 242 247 243 241 247 240 239 247 245 245 249 255 255 253 255 253 253 254 254 254 255 259 262 259 251 246 246 241 238 234 228 222 217 217 215 210 207 207
271 271 271 270 269 269 268 270 271 273 275 276 276 276 277 278 280 280 279 277 274 272 270 269 268 268 268 268 265 256 257 262 257 258 255 249 245 235 231 229 225 227 234 238 236 238 239 238 239 239 242 246 243 243 245 238 238 246 246 246 248 251 254 254 254 253 253 252 249 249 254 259 260 256 248 243 243 236 236 233 220 217 216 214 216 215 209 207
271 271 271 270 268 268 268 269 271 273 275 276 276 276 277 278 279 280 279 276 273 271 268 266 265 266 268 265 260 249 250 261 262 258 251 245 240 228 225 223 221 227 232 233 233 235 237 236 236 238 242 244 244 243 240 236 239 245 247 246 246 248 251 253 253 252 251 249 247 250 255 256 253 253 246 238 237 231 232 228 215 216 216 213 214 214 211 208
272 271 271 270 268 267 267 269 271 273 274 275 275 275 277 278 279 280 279 276 273 270 265 263 262 263 266 261 258 251 250 262 263 253 245 236 231 221 219 218 220 227 228 228 232 236 237 235 237 240 242 245 247 241 236 240 243 243 245 247 248 249 250 251 250 248 248 247 246 249 252 251 248 251 247 235 233 233 231 226 223 223 219 214 211 210 212 210
272 272 271 269 267 266 266 268 270 272 274 275 274 274 276 277 278 279 278 276 272 269 263 260 259 258 259 256 260 257 252 262 260 244 233 226 222 215 216 217 221 225 225 230 234 236 236 235 239 242 245 251 247 240 237 241 245 241 241 245 247 249 249 247 245 244 245 243 242 245 246 247 245 246 242 232 233 234 226 222 223 222 216 212 210 208 208 209
274 272 271 269 266 264 265 266 268 271 273 275 275 274 275 275 276 277 276 275 271 269 263 258 255 254 254 254 261 261 252 257 251 233 223 219 216 214 219 220 220 223 226 231 230 232 238 240 241 241 247 253 245 240 238 238 246 244 242 247 248 250 250 245 244 243 242 239 236 240 242 241 237 238 237 229 232 228 219 219 218 215 212 208 207 205 204 206
274 272 271 269 265 263 262 263 266 269 271 275 275 275 276 275 275 275 275 274 271 268 263 257 253 251 252 252 261 263 251 250 243 227 220 215 215 217 224 223 219 222 226 228 226 230 241 244 239 236 245 249 239 239 239 239 248 248 246 251 249 249 248 244 244 241 239 236 231 236 240 235 230 234 234 224 223 219 213 215 213 210 210 208 205 203 205 205
273 271 270 267 265 262 260 261 264 266 270 273 275 275 275 275 275 273 274 273 269 266 261 258 253 250 254 254 255 256 243 243 238 225 218 216 218 223 227 224 222 224 224 226 228 230 238 240 234 236 248 247 238 242 241 239 248 248 247 252 248 245 243 241 241 235 233 231 224 231 237 232 228 229 228 219 218 217 213 214 215 213 209 209 207 205 205 204
271 269 268 266 263 260 260 260 262 265 267 271 275 275 274 274 274 272 272 270 268 264 258 257 254 249 256 257 246 237 238 237 232 224 218 217 221 228 231 227 228 230 228 230 231 229 234 235 232 243 252 244 243 250 245 241 246 245 244 248 248 246 238 232 235 230 226 226 220 226 235 229 221 220 223 220 217 216 214 213 215 212 208 208 211 208 205 204
269 267 265 263 261 258 259 259 261 264 265 269 272 273 274 273 272 271 270 269 265 261 256 255 253 248 252 254 237 232 238 235 229 223 216 216 220 225 225 225 228 227 230 235 232 229 235 236 234 245 245 239 251 253 243 243 243 241 241 241 245 246 231 218 226 227 222 225 222 225 234 227 211 212 222 220 218 218 216 213 209 212 216 215 215 212 205 204
268 265 262 261 258 256 256 257 260 263 265 268 270 272 273 271 270 267 267 268 264 258 255 252 246 248 254 250 236 234 234 233 229 220 215 213 211 214 216 218 222 223 229 235 232 231 235 234 235 245 239 235 248 245 238 240 236 238 238 235 239 238 219 214 226 226 225 226 220 222 232 222 208 214 222 220 220 220 219 217 212 212 215 214 214 213 207 205
266 264 261 259 257 255 254 255 258 261 264 267 269 272 271 270 268 262 263 267 263 254 249 250 245 250 263 254 233 230 231 231 226 216 216 213 209 213 213 215 221 224 230 233 235 235 233 234 241 249 243 232 237 241 241 236 231 234 236 236 234 222 216 227 231 225 227 225 216 220 230 221 204 216 226 224 225 222 221 222 219 216 214 215 218 217 213 211
266 262 260 258 256 255 254 254 256 259 262 265 270 274 271 270 265 259 261 263 261 251 244 252 251 251 260 252 233 230 228 226 221 217 218 220 224 219 212 217 224 225 230 233 236 237 234 235 241 243 240 238 240 242 240 234 232 231 232 240 234 225 231 235 225 220 222 225 221 220 227 224 209 222 231 226 223 222 224 225 224 224 221 220 224 224 221 219
266 262 259 257 255 254 253 254 255 256 260 264 270 274 272 270 263 254 256 261 256 244 246 249 245 255 253 235 232 229 223 223 221 221 219 222 227 217 213 223 226 225 232 234 234 236 234 235 241 240 237 237 233 231 232 240 248 234 227 236 231 230 243 238 217 216 218 227 230 222 224 227 220 227 233 226 224 224 226 228 228 230 227 224 227 229 227 225
267 264 260 257 255 254 253 253 254 255 259 263 268 270 268 266 263 253 250 254 243 237 254 241 227 256 258 222 227 230 225 227 223 222 220 220 223 219 222 232 230 229 234 234 231 233 236 237 240 240 237 233 228 231 244 260 269 255 234 238 234 227 231 228 208 216 228 233 233 228 227 230 230 234 236 230 231 232 230 230 232 233 232 231 233 232 230 227
267 264 260 259 256 254 253 252 253 255 257 259 263 264 264 265 264 256 249 247 241 244 262 240 224 247 257 221 225 229 227 229 225 225 223 220 222 223 228 232 230 233 239 238 234 236 243 244 239 240 240 238 237 242 253 261 263 259 249 247 245 234 228 225 215 226 242 242 236 231 230 236 238 236 236 236 236 236 234 232 233 235 235 235 235 232 229 228
267 263 260 258 257 254 252 251 252 254 254 255 260 261 267 277 271 267 263 252 244 244 252 244 234 245 250 233 230 230 229 229 228 228 224 221 225 227 226 229 232 236 238 238 242 242 246 248 243 244 248 248 249 248 249 255 255 249 249 250 246 240 236 233 230 234 241 242 241 237 236 242 242 237 237 240 242 239 236 235 234 235 236 235 234 231 229 231
267 262 259 257 257 254 248 250 251 253 253 251 255 258 268 282 274 273 274 261 248 242 244 244 240 241 242 238 237 237 236 232 228 225 223 223 226 226 223 229 237 239 234 234 244 244 245 250 243 240 248 249 251 250 247 250 251 246 246 249 246 240 237 233 233 240 243 244 245 242 240 243 244 242 238 239 245 245 239 239 237 235 235 234 233 232 231 234
268 262 258 255 255 254 250 251 251 252 252 249 254 261 270 275 274 275 270 263 256 243 240 239 235 235 234 235 234 232 235 234 225 221 222 225 226 229 233 237 239 240 236 235 242 245 249 251 237 231 246 248 247 245 245 246 246 245 244 246 245 240 241 240 237 242 248 250 252 252 249 247 249 246 240 239 245 246 241 239 238 235 234 233 232 233 234 234
269 263 259 255 252 253 252 251 251 253 250 252 259 265 271 271 275 278 267 262 259 242 235 235 233 233 231 232 230 227 236 242 233 224 220 223 225 230 241 244 241 243 243 238 240 246 252 247 232 239 248 248 247 242 242 246 245 243 243 246 247 244 246 248 242 242 250 250 249 253 254 252 251 248 244 242 242 243 241 238 235 233 232 233 233 235 237 235
270 264 260 255 252 251 251 250 251 252 250 254 259 261 269 272 276 277 266 261 254 236 233 233 231 233 232 232 228 229 241 244 236 224 216 223 228 234 245 244 241 245 243 235 238 247 250 245 241 248 251 248 249 246 242 245 249 246 241 244 250 250 248 247 242 242 252 253 243 245 254 256 252 248 244 239 236 238 239 235 233 230 230 232 233 235 238 237
272 265 260 255 252 249 249 251 250 251 253 255 256 261 270 274 275 271 263 257 244 229 229 227 227 231 231 230 224 233 245 236 229 229 225 230 236 245 250 240 239 249 248 239 245 250 246 245 248 249 249 248 248 250 245 242 250 253 244 240 245 249 247 246 246 246 252 258 246 241 255 260 253 246 240 235 234 235 236 236 234 231 230 232 233 233 234 237
277 266 260 255 252 247 250 259 257 255 259 258 257 266 271 272 271 263 257 254 237 225 225 221 227 232 230 228 221 230 244 228 228 237 234 233 236 242 245 239 240 247 249 246 248 249 242 244 249 246 247 247 246 250 245 239 246 253 250 243 243 247 248 247 249 250 254 260 251 243 251 257 255 248 239 234 235 236 234 233 234 233 232 233 233 233 233 236
282 269 263 257 252 249 254 262 261 259 263 264 262 267 269 268 264 253 253 254 234 228 233 225 230 233 228 228 224 230 243 230 233 238 230 231 234 234 239 246 249 243 238 240 245 249 246 247 246 242 244 245 246 251 244 237 243 252 256 250 248 252 251 249 250 251 255 258 254 248 247 253 255 249 240 234 237 242 237 231 233 234 233 233 234 234 234 236
282 269 263 258 254 255 257 259 259 260 266 269 266 266 266 262 257 248 251 254 237 233 238 230 232 230 225 228 228 231 240 235 237 237 228 232 233 234 243 252 253 249 239 239 247 254 248 248 249 243 243 244 246 253 246 239 243 254 260 253 249 253 251 250 251 252 254 253 253 251 246 251 256 249 242 238 241 247 238 230 234 235 234 234 235 236 238 240
282 269 260 253 254 258 258 256 255 259 266 267 265 266 263 255 250 246 246 248 238 229 230 230 230 224 221 226 228 229 233 233 236 235 229 232 230 233 247 251 248 252 246 240 248 254 246 248 254 249 247 250 253 254 250 247 250 256 259 252 249 252 251 251 252 252 254 251 250 250 246 248 254 252 248 242 245 250 234 226 233 235 234 236 239 241 242 244
282 269 256 248 252 257 258 256 254 259 264 265 266 263 257 250 246 246 243 245 239 225 224 228 224 219 220 226 229 227 229 230 231 231 229 232 230 231 240 242 243 249 246 243 248 250 246 245 248 247 247 253 256 254 250 248 250 252 253 251 249 250 248 249 250 247 250 254 254 251 246 246 251 254 251 238 237 242 233 228 233 235 237 243 246 246 246 249
280 268 253 247 253 257 258 261 262 262 262 263 263 255 251 248 243 243 242 243 239 226 225 227 224 223 224 228 230 224 225 229 228 230 231 231 230 231 235 235 238 244 244 244 244 245 249 247 242 242 246 251 253 251 246 242 245 248 248 248 249 248 245 246 247 244 248 255 256 252 245 244 251 255 247 231 229 234 239 243 242 240 246 251 251 250 251 253
278 265 251 248 253 255 257 262 263 262 261 258 256 249 248 249 246 245 241 236 233 227 228 227 224 226 225 228 229 222 224 229 227 231 234 233 231 232 236 238 240 245 246 246 243 243 248 243 234 238 245 247 249 249 244 240 242 246 245 244 244 245 245 247 248 247 250 251 249 251 251 250 255 256 240 229 234 239 242 247 247 246 248 250 251 253 254 255
276 264 252 250 253 255 257 262 262 262 261 254 250 246 245 247 248 248 241 235 233 231 229 226 224 225 228 231 228 224 229 231 228 232 234 235 237 235 236 239 240 243 246 248 246 247 254 247 233 237 244 241 245 248 251 253 250 246 245 244 243 245 247 251 254 255 256 254 244 241 251 256 256 250 237 233 239 243 243 243 245 245 246 247 250 254 256 257
274 263 255 253 254 255 256 259 259 260 257 251 248 246 244 246 248 247 242 236 235 231 227 228 230 229 230 232 229 228 234 234 233 238 237 237 241 237 233 235 237 240 244 246 245 246 257 256 231 232 242 243 247 251 254 257 253 248 247 244 243 247 250 255 260 260 261 263 254 244 250 259 255 246 243 242 240 240 242 241 239 240 243 246 249 251 254 257
270 260 256 255 252 253 254 255 255 255 254 250 249 247 244 246 249 250 243 234 235 234 228 228 232 234 231 230 231 230 231 234 237 240 240 241 244 238 231 233 239 241 241 245 249 248 252 248 222 231 246 246 250 256 253 251 252 254 250 246 247 250 253 256 259 256 254 258 257 253 255 258 257 251 244 242 243 242 243 239 235 237 239 242 247 250 253 258
265 258 257 254 249 251 253 252 251 252 251 250 249 248 247 249 250 251 246 238 241 243 238 234 233 236 236 231 232 230 227 233 238 240 244 243 243 239 233 236 243 246 245 247 252 253 252 250 245 248 249 244 249 258 255 248 251 254 251 253 256 254 254 256 258 256 254 258 257 255 258 258 258 254 241 238 242 240 239 235 232 235 237 241 246 249 252 258
264 260 258 252 248 252 253 249 249 250 250 249 250 249 250 252 250 248 246 244 246 244 241 242 237 237 240 237 235 232 227 232 236 240 245 240 235 238 238 239 242 244 248 250 251 251 251 256 255 250 248 247 249 255 256 249 246 248 253 259 258 254 253 252 254 256 258 261 262 260 261 260 259 253 239 240 242 234 233 233 231 234 236 241 245 245 250 256
263 260 256 248 246 251 250 247 247 248 248 248 249 248 249 250 247 247 247 245 246 245 243 245 241 238 241 241 240 235 230 236 239 241 244 239 238 241 242 244 243 242 246 249 252 252 251 256 256 249 248 252 253 253 255 252 244 244 252 255 252 253 257 255 255 257 259 262 265 265 263 261 261 254 240 245 243 231 230 234 232 233 238 243 244 242 247 254
261 259 253 246 247 250 247 245 245 245 246 247 247 249 250 249 245 244 246 245 245 245 245 247 245 241 241 241 244 241 237 242 246 247 246 242 241 241 242 245 245 245 248 249 253 254 252 253 256 253 250 251 253 253 256 257 250 246 249 251 249 249 253 257 257 256 259 263 265 266 264 262 262 256 253 256 244 231 234 238 233 234 240 246 245 242 246 251
260 258 252 246 248 248 244 244 244 244 246 246 246 249 251 250 246 243 242 244 246 245 246 250 249 246 244 244 245 244 244 246 247 249 249 246 245 244 246 247 246 249 252 251 253 255 252 252 254 255 253 251 254 256 259 260 257 253 254 255 255 253 253 258 259 257 259 262 264 267 267 266 264 259 260 261 247 236 239 239 234 237 242 246 245 244 246 247
257 256 252 248 249 246 244 245 245 244 246 246 247 249 249 248 248 246 244 243 245 246 245 247 249 249 248 247 246 245 247 248 247 248 250 250 249 246 244 245 248 253 255 254 256 256 253 254 256 256 255 256 259 258 256 258 259 258 258 259 259 258 258 260 262 264 264 264 265 267 266 266 266 264 260 255 248 244 243 239 237 242 246 247 246 246 247 247
255 255 254 250 249 246 245 246 246 245 246 246 248 248 248 247 247 247 247 244 244 245 245 246 248 249 248 248 248 248 249 250 251 251 251 252 250 243 242 248 253 254 254 256 257 254 252 255 257 259 259 259 259 256 251 254 260 259 257 256 256 256 258 260 263 267 267 264 264 266 266 264 264 265 261 255 252 249 245 241 240 244 250 251 249 248 248 248
260 259 255 252 249 245 245 247 247 247 247 246 247 247 246 247 247 248 249 246 245 246 247 248 249 249 248 249 250 250 251 252 252 251 251 253 250 245 248 254 256 253 253 256 257 255 254 254 255 259 261 258 256 252 250 252 257 260 257 254 253 257 260 260 262 264 263 261 262 263 265 265 263 264 262 257 254 250 247 245 242 246 251 252 251 251 250 249
264 260 255 254 249 244 245 249 250 250 250 247 246 247 247 246 247 249 251 250 248 249 250 251 251 250 251 251 252 252 252 253 253 250 251 253 252 251 253 254 254 254 255 258 260 259 258 257 256 258 259 258 256 255 256 257 258 262 262 256 252 256 260 260 261 260 259 262 262 261 264 265 262 262 263 261 257 253 250 248 247 249 251 251 253 255 253 251
265 259 255 254 251 247 247 250 250 250 252 250 248 248 248 247 246 248 249 250 250 251 252 252 253 253 253 253 254 254 253 252 251 251 253 253 253 254 254 252 253 255 257 259 259 259 259 258 257 257 258 259 261 263 267 268 265 264 265 260 255 256 258 259 260 260 262 266 264 261 264 267 263 261 263 262 259 254 252 251 251 251 250 251 254 255 254 252
264 260 257 256 255 250 248 249 250 249 250 250 250 250 249 249 249 247 247 249 251 252 252 253 253 253 253 254 255 255 255 253 251 251 253 254 254 254 254 253 253 254 257 258 256 257 259 259 258 258 259 261 263 265 267 268 267 266 266 262 260 260 261 259 259 261 265 267 264 263 266 267 266 264 262 261 260 257 255 255 255 254 252 254 255 255 255 255
267 261 258 257 254 252 251 253 255 254 251 249 249 251 251 250 251 249 248 251 252 252 252 252 253 253 253 254 255 255 255 254 252 251 252 253 253 253 255 255 253 252 255 256 254 256 260 260 260 261 261 262 262 264 265 265 266 266 264 262 262 263 263 262 261 261 263 263 264 267 269 267 267 267 264 263 263 261 259 257 257 256 256 257 258 257 256 255
271 264 262 259 256 255 256 257 257 256 254 252 251 251 252 251 250 251 253 254 253 251 253 254 254 254 254 254 255 255 255 255 254 252 253 254 254 254 255 255 253 253 254 254 254 258 261 262 262 263 264 264 264 264 265 265 266 265 263 262 262 262 262 262 263 263 263 263 265 267 268 266 266 266 265 264 265 264 263 260 258 257 256 256 257 258 257 256
274 269 268 264 259 259 259 257 256 254 251 251 251 251 252 252 251 251 254 256 254 252 255 257 254 253 255 255 255 255 257 258 256 254 254 255 255 254 255 256 256 256 255 254 255 256 259 262 263 265 266 265 265 266 265 265 265 265 263 262 261 262 262 262 263 263 264 264 265 266 267 266 266 266 265 264 264 264 263 260 258 256 255 256 258 258 258 257
279 272 270 266 261 262 262 258 255 253 250 249 251 251 251 252 252 252 254 256 256 254 256 258 256 254 256 255 254 255 258 259 257 255 255 255 255 256 256 258 259 257 255 256 257 256 259 263 266 266 265 265 266 266 266 267 267 265 263 262 262 262 263 263 263 263 263 265 266 266 266 266 267 267 266 265 264 262 260 258 257 256 256 257 258 258 258 257
287 277 272 269 263 262 264 259 255 254 251 250 254 254 252 253 253 253 255 256 254 255 258 258 257 256 256 255 254 257 261 260 259 258 258 257 257 258 257 258 260 259 258 259 260 259 261 264 266 265 265 266 266 267 268 271 269 264 263 264 264 262 262 262 262 262 263 264 264 265 266 268 270 269 268 267 265 263 261 260 258 258 258 257 257 257 258 257